Regional Weather Roundup
Issued by NWS Newport/Morehead, NC

Current Version | Previous Version | Graphics & Text | Print | Product List | Glossary On
Versions: 1 2 3 4 5 6 7 8 9 10 11 12 13 14 15 16 17 18 19 20 21 22 23 24 25 26 27 28 29 30 31 32 33 34 35 36 37 38 39 40 41 42 43 44 45 46 47 48 49 50
000 ASUS42 KMHX 021713 RWRMHX WEATHER ROUNDUP FOR EASTERN NORTH CAROLINA NATIONAL WEATHER SERVICE NEWPORT/MOREHEAD CITY NC 100 PM EDT WED SEP 02 2015 NOTE: "FAIR" INDICATES FEW OR NO CLOUDS BELOW 12,000 FEET WITH NO SIGNIFICANT WEATHER AND/OR OBSTRUCTIONS TO VISIBILITY NCZ015>017-031-032-045>047-102-103-021800- NORTH COAST CITY SKY/WX TMP DP RH WIND PRES REMARKS EDENTON MOSUNNY 86 69 56 SW6 30.04F ELIZABETH CITY MOSUNNY 90 69 50 CALM 30.02F KITTY HAWK PTSUNNY 88 70 54 E3 30.03S MANTEO PTSUNNY 84 72 67 E3 30.04F $$ NCZ045>047-081-094-103-104-021800- CENTRAL COAST CITY SKY/WX TMP DP RH WIND PRES REMARKS FRISCO MOSUNNY 85 72 65 VRB3 30.05F SWANQUARTER N/A 88 N/A N/A SW2 30.00S $$ NCZ095-097-098-100-101-021800- SOUTHERN COAST CITY SKY/WX TMP DP RH WIND PRES REMARKS BEAUFORT MOSUNNY 87 71 58 NW5 30.04F CEDAR ISLAND N/A 84 N/A N/A VRB3 30.09S JACKSONVILLE MOSUNNY 89 67 47 NW5 30.04F PINEY ISLAND PTSUNNY N/A N/A N/A E7 30.05F WILMINGTON SUNNY 91 70 49 NW8 30.05F $$ NCZ011>013-027>030-043-044-078>080-089-090>093-098-021800- COASTAL PLAIN CITY SKY/WX TMP DP RH WIND PRES REMARKS AHOSKIE MOSUNNY 88 68 52 CALM 30.03F CLINTON MOSUNNY 90 71 54 N5 30.06S ELIZABETHTOWN PTSUNNY 89 69 51 CALM 30.06F GOLDSBORO PTSUNNY 90 69 50 CALM 30.04F GREENVILLE PTSUNNY 90 68 48 CALM 30.06F HAVELOCK PTSUNNY 89 65 44 VRB3 30.05F KENANSVILLE MOSUNNY 89 67 47 NW3 30.06F KINSTON PTSUNNY 90 72 55 CALM 30.05F NEW BERN MOSUNNY 88 67 49 CALM 30.06F RICHLANDS MOSUNNY 90 66 45 W3 30.05F ROCKY MOUNT PTSUNNY 92 68 45 S3 30.04F WASHINGTON PTSUNNY 86 68 54 CALM 30.04F WHITEVILLE PTSUNNY 89 69 50 W3 30.06S $$ AMZ130-135-150-152-154-156-158-170-250-252-270-ANZ085-086-088-633-658-670-021800- MARINE OBSERVATIONS STATION/POSITION TIME TEMP WIND PRES WAVE SWELL AIR SEA DIR/SP/G HT/PER HT/PER (UTC) (F) (DEG/KT/KT) (MB) (FT/S) (FT/S) CHESAPEAKE LIGHT 1700 81 200/ 3/ 3 1017.2 64 E VA BEACH 1650 80 83 220/ 4/ 6 1016.6 2/ 9 2/ 9 DUCK 1600 80 78 30/ 3/ 4 1016.7 2 E DUCK 1611 82 N/A 1/13 2/13 OREGON INLET 1600 80 81 30/ 5/ 7 1017.4 13E OREGON INLT 1700 81 N/A 1/14 HATTERAS CG 1600 81 81 340/ 4/ 5 1017.6 DIAMOND BUOY 1650 81 85 340/ 4/ 6 1017.6 2/ 9 2/ 9 CAPE LOOKOUT 1700 81 130/ 6/ 6 1017.1 BEAUFORT LAB 1600 85 80 330/ 3/ 5 1017.1 30 SE NEW RVR IN 1608 81 82 300/ 4/ 8 1018.2 30 SE NEW RVR IN 1625 83 N/A 2/ 9 27 SE WRIGHTSVLE NOT AVBL 5 SE WRIGHTSVLE 1608 84 82 180/ 2/ 4 1018.0 225 S CAPE HAT 1650 83 84 270/ 8/ 10 1018.0 2/13 2/13 41 SE CHARLESTON 1650 81 84 50/ 4/ 4 1018.5 2/ 9 2/ 9 $$

USA.gov is the U.S. government's official web portal to all federal, state and local government web resources and services.